Location: Pandora
(40.9481°N, 83.9611°W)
Time: 18:29:06
(UTC-04:00)

ISS - Pass Details

Date: 03 October 2021
Orbit: 417 x 423 km, 51.6° (Epoch: 19 October)

Event Time Altitude Azimuth Distance (km) Brightness Sun altitude
Rises 20:31:02 0° 307° (NW) 2,364 1.2 -15.4°
Reaches altitude 10° 20:33:09 10° 310° (NW) 1,498 -0.1 -15.8°
Maximum altitude 20:36:30 68° 34° (NNE) 454 -3.8 -16.4°
Enters shadow 20:37:22 44° 100° (E) 585 -3.5 -16.5°
